DW9672 Weather Reports


Display with metric or nautical units.
time (UTC)temp
F
wind
direction
speed
MPH
gust
MPH
rain 1hr
in
rain 24hr
in
rain mn
in
humidity
%
barometer
mb
20260507180004 56 314 4.0 8.0 0.00 0.00 0.00 57 1015.3
20260507174544 55 256 0.0 7.0 0.00 0.00 0.00 62 1015.6
20260507173056 54 315 2.0 6.0 0.00 0.00 0.00 64 1016.1
20260507171523 52 284 0.0 8.0 0.00 0.00 0.00 66 1016.2
20260507170040 53 340 3.0 17.0 0.00 0.00 0.00 66 1017.3
20260507164506 56 294 2.0 16.0 0.00 0.00 0.00 52 1016.8
20260507163005 57 23 1.0 10.0 0.00 0.00 0.00 43 1016.3
20260507161552 57 265 2.0 11.0 0.00 0.00 0.00 42 1016.3
20260507160047 58 250 3.0 10.0 0.00 0.00 0.00 40 1016.1
20260507154527 58 290 3.0 12.0 0.00 0.00 0.00 41 1016.0
20260507153024 57 150 3.0 8.0 0.00 0.00 0.00 44 1016.2
20260507151504 57 197 3.0 10.0 0.00 0.00 0.00 46 1016.6
20260507150003 56 18 3.0 11.0 0.00 0.00 0.00 47 1016.7
20260507144544 56 168 2.0 9.0 0.00 0.00 0.00 51 1016.8
20260507143042 54 292 1.0 11.0 0.00 0.00 0.00 51 1017.2
20260507141518 53 206 0.0 8.0 0.00 0.00 0.00 57 1017.5
20260507140015 51 241 0.0 4.0 0.00 0.00 0.00 60 1017.6
20260507134553 51 253 2.0 6.0 0.00 0.00 0.00 57 1017.8
20260507133049 49 240 2.0 4.0 0.00 0.00 0.00 62 1017.9
20260507131528 48 148 1.0 5.0 0.00 0.00 0.00 69 1017.9
20260507130026 46 146 1.0 3.0 0.00 0.00 0.00 74 1017.9
20260507124508 44 46 1.0 2.0 0.00 0.00 0.00 85 1018.1
20260507123008 43 32 0.0 0.0 0.00 0.00 0.00 92 1018.2
20260507121555 41 32 0.0 0.0 0.00 0.00 0.00 95 1018.1
20260507120049 40 31 0.0 0.0 0.00 0.00 0.00 96 1017.9
20260507114632 39 30 0.0 0.0 0.00 0.00 0.00 96 1017.7
20260507113030 38 30 0.0 0.0 0.00 0.00 0.00 95 1017.8
20260507111516 37 30 0.0 0.0 0.00 0.00 0.00 95 1017.7
20260507110012 37 30 0.0 0.0 0.00 0.00 0.00 95 1017.8
20260507104602 37 30 0.0 0.0 0.00 0.00 0.00 95 1017.8
20260507103127 35 30 0.0 0.0 0.00 0.00 0.00 93 1017.9
20260507101538 36 30 0.0 0.0 0.00 0.00 0.00 93 1018.0
20260507100032 37 30 0.0 0.0 0.00 0.00 0.00 93 1017.9
20260507094516 38 30 0.0 0.0 0.00 0.00 0.00 93 1018.1
20260507093016 38 30 0.0 0.0 0.00 0.00 0.00 93 1018.0
20260507091555 38 30 0.0 0.0 0.00 0.00 0.00 92 1018.1
20260507090059 38 30 0.0 0.0 0.00 0.00 0.00 92 1018.1
20260507084544 38 30 0.0 0.0 0.00 0.00 0.00 90 1018.3
20260507083036 38 30 0.0 0.0 0.00 0.00 0.00 90 1018.3
20260507081519 37 30 0.0 0.0 0.00 0.00 0.00 90 1018.2
20260507080018 37 30 0.0 0.0 0.00 0.00 0.00 89 1018.2
20260507074608 37 30 0.0 0.0 0.00 0.00 0.00 88 1018.2
20260507073059 37 30 0.0 0.0 0.00 0.00 0.00 89 1018.2
20260507071541 38 30 0.0 0.0 0.00 0.00 0.00 89 1018.2
20260507070059 38 30 0.0 0.0 0.00 0.00 0.00 90 1018.3
20260507064522 38 30 0.0 0.0 0.00 0.00 0.00 91 1018.3
20260507063021 38 30 0.0 0.0 0.00 0.00 0.00 89 1018.6
20260507061503 38 30 0.0 0.0 0.00 0.00 0.00 89 1018.7
20260507060002 38 30 0.0 0.0 0.00 0.00 0.00 87 1018.7
20260507054615 38 30 0.0 0.0 0.00 0.00 0.00 85 1018.7
20260507053046 39 30 0.0 0.0 0.00 0.00 0.00 85 1018.7
20260507051547 39 30 0.0 0.0 0.00 0.00 0.00 84 1018.7
20260507050037 40 30 0.0 0.0 0.00 0.00 0.00 84 1018.5
20260507044519 40 30 0.0 0.0 0.00 0.00 0.00 82 1018.5
20260507043101 40 30 0.0 0.0 0.00 0.00 0.00 80 1018.5
20260507041604 41 30 0.0 0.0 0.00 0.00 0.00 80 1018.4
20260507040042 41 30 0.0 0.0 0.00 0.00 0.00 80 1018.6
20260507034535 42 30 0.0 0.0 0.00 0.00 0.00 79 1018.6
20260507033017 43 30 0.0 0.0 0.00 0.00 0.00 76 1018.5
20260507031513 43 30 0.0 0.0 0.00 0.00 0.00 73 1018.6
20260507030053 44 30 0.0 0.0 0.00 0.00 0.00 72 1018.6
20260507024553 45 30 0.0 0.0 0.00 0.00 0.00 70 1018.5
20260507023030 45 30 0.0 0.0 0.00 0.00 0.00 71 1018.3
20260507021534 46 30 0.0 0.0 0.00 0.00 0.00 67 1018.1
20260507020007 48 30 0.0 0.0 0.00 0.00 0.00 65 1017.8
20260507014505 48 30 0.0 0.0 0.00 0.00 0.00 58 1017.6
20260507013050 49 30 0.0 0.0 0.00 0.00 0.00 52 1017.6
20260507011556 50 30 0.0 1.0 0.00 0.00 0.00 51 1017.5
20260507010037 51 30 1.0 6.0 0.00 0.00 0.00 47 1017.5
20260507004527 51 55 3.0 11.0 0.00 0.00 0.00 45 1017.4
20260507003009 52 315 2.0 9.0 0.00 0.00 0.00 45 1017.3
20260507001509 53 19 1.0 8.0 0.00 0.00 0.00 44 1017.4
20260507000113 53 13 5.0 10.0 0.00 0.00 0.00 42 1017.3
20260506234610 54 355 6.0 13.0 0.00 0.00 0.00 42 1017.1
20260506233034 55 28 4.0 12.0 0.00 0.00 0.00 42 1017.0
20260506231535 55 335 4.0 14.0 0.00 0.00 0.00 39 1016.9
20260506230014 56 29 6.0 13.0 0.00 0.00 0.00 40 1016.8
20260506224515 56 294 4.0 15.0 0.00 0.00 0.00 40 1016.7
20260506223103 56 41 4.0 15.0 0.00 0.00 0.00 41 1016.5
20260506221603 56 29 4.0 13.0 0.00 0.00 0.00 41 1016.4
20260506220043 56 5 5.0 16.0 0.00 0.00 0.00 42 1016.5
20260506214537 56 295 4.0 10.0 0.00 0.00 0.00 41 1016.5
20260506213019 56 32 4.0 14.0 0.00 0.00 0.00 42 1016.5
20260506211530 57 26 7.0 17.0 0.00 0.00 0.00 40 1016.6
20260506210100 57 288 5.0 14.0 0.00 0.00 0.00 43 1016.4
20260506204600 56 360 4.0 15.0 0.00 0.00 0.00 41 1016.6
20260506203041 56 273 3.0 15.0 0.00 0.00 0.00 40 1016.7
20260506201541 56 309 5.0 15.0 0.00 0.00 0.00 41 1016.8
20260506200028 56 22 5.0 12.0 0.00 0.00 0.00 43 1016.7
20260506194521 56 40 2.0 13.0 0.00 0.00 0.00 44 1016.8
20260506193003 56 345 3.0 10.0 0.00 0.00 0.00 44 1016.9
20260506191502 56 313 3.0 13.0 0.00 0.00 0.00 43 1017.0
20260506190043 55 329 1.0 14.0 0.00 0.00 0.00 43 1017.1
20260506184542 55 279 3.0 10.0 0.00 0.00 0.00 44 1017.0
20260506183025 55 39 5.0 13.0 0.00 0.00 0.00 45 1017.0
20260506181536 54 355 1.0 9.0 0.00 0.00 0.00 48 1017.1